Vorticity
15 12 8 12 17 14 10 8 7 6 7 6 7 -18 -66 3 -2 0 -5 10 30 15
21 12 14 13 9 10 15 12 9 8 6 7 8 8 2 5 -4 -22 10 0 -2 14
15 17 11 13 16 17 16 10 12 7 8 9 7 5 8 4 6 10 20 8 8 -6
16 13 14 13 11 12 14 19 17 11 9 8 10 9 12 10 -5 7 4 -6 -2 -16
7 14 18 23 21 22 19 16 16 20 17 16 8 11 16 12 13 -8 4 -10 21 19
12 14 10 8 12 17 23 22 20 19 25 22 14 12 13 11 25 16 11 7 -16 -6
9 6 13 15 5 6 9 16 19 21 22 17 20 17 17 15 10 31 15 17 7 1
12 11 13 12 14 11 8 9 10 11 15 17 18 14 9 10 14 8 27 10 20 27
8 10 12 8 7 6 9 9 12 10 8 8 8 11 13 24 27 8 -2 6 4 0
12 9 5 4 7 4 10 12 9 9 10 9 7 8 9 10 9 10 19 30 16 30
8 6 5 8 8 5 6 7 9 10 11 10 12 16 17 12 15 18 15 10 9 9
9 9 8 10 11 13 12 13 17 12 11 7 11 13 13 13 14 15 19 17 19 22
10 11 12 9 10 9 11 9 11 9 9 6 9 11 12 15 16 15 13 10 14 16
21 14 11 11 11 10 7 8 8 8 6 8 7 6 3 4 4 6 5 4 5 8
Height
5533 5543 5552 5560 5569 5577 5587 5596 5604 5615 5625 5633 5640 5646 5653 5662 5668 5674 5679 5685 5690 5697
5517 5527 5536 5545 5553 5562 5571 5581 5591 5599 5609 5618 5626 5633 5639 5647 5654 5661 5668 5674 5680 5686
5504 5513 5521 5530 5539 5547 5556 5565 5575 5584 5594 5603 5611 5619 5627 5634 5642 5649 5656 5662 5668 5674
5491 5499 5508 5516 5525 5533 5542 5550 5559 5569 5578 5588 5596 5605 5611 5617 5628 5635 5643 5649 5655 5662
5479 5487 5495 5503 5512 5521 5528 5537 5545 5554 5562 5571 5580 5589 5596 5604 5610 5619 5626 5636 5642 5648
5468 5476 5484 5494 5501 5508 5515 5523 5532 5541 5548 5556 5564 5572 5581 5589 5597 5604 5610 5620 5627 5633
5458 5467 5475 5484 5492 5499 5505 5512 5520 5528 5536 5543 5550 5558 5566 5574 5582 5591 5597 5603 5610 5617
5449 5457 5465 5474 5482 5489 5496 5503 5510 5516 5524 5532 5538 5545 5552 5559 5566 5574 5583 5589 5595 5603
5441 5448 5456 5464 5472 5480 5487 5494 5501 5506 5513 5519 5527 5533 5539 5545 5551 5559 5566 5574 5581 5587
5433 5440 5448 5455 5463 5471 5478 5485 5491 5496 5502 5508 5515 5521 5526 5531 5538 5544 5552 5557 5564 5571
5426 5432 5440 5446 5453 5461 5467 5473 5480 5485 5491 5498 5504 5510 5515 5520 5525 5532 5537 5542 5549 5556
5419 5425 5431 5437 5444 5450 5457 5463 5469 5475 5480 5488 5493 5498 5503 5509 5514 5518 5523 5528 5536 5542
5410 5416 5423 5429 5436 5441 5447 5453 5459 5465 5471 5478 5483 5487 5492 5497 5503 5508 5513 5517 5523 5529
5402 5407 5413 5420 5426 5431 5438 5444 5450 5456 5462 5468 5473 5477 5482 5487 5492 5498 5501 5506 5512 5517